Location: Lugano
(46.0000°N, 8.9670°E)
Time: 17:03:25
(UTC+02:00)

Envisat - Pass Details

Date: 13 March 2026
Orbit: 761 x 762 km, 98.4° (Epoch: 19 April)

Event Time Altitude Azimuth Distance (km) Brightness Sun altitude
Rises 05:00:00 0° 356° (N) 3,236 6.4 -18.2°
Reaches altitude 10° 05:03:49 10° 327° (NNW) 2,304 5.3 -17.6°
Enters shadow 05:05:12 12° 311° (NW) 2,171 5.0 -17.3°
